Location: Kawakawa
(35.3830°S, 174.0670°E)
Time: 18:09:12
(UTC+12:00)

CZ-2C R/B - Pass Details

Date: 15 August 2020
Orbit: 639 x 705 km, 98.4° (Epoch: 25 September)

Event Time Altitude Azimuth Distance (km) Brightness Sun altitude
Exits shadow 19:53:40 61° 188° (S) 740 3.9 -25.3°
Drops below altitude 10° 19:57:25 10° 192° (SSW) 2,074 6.4 -26.1°
Sets 19:59:39 0° 192° (SSW) 2,999 7.2 -26.5°
